This is the latest recevied weather packets stored in our database for station/object DK9HI-WX. If no packets are shown the sender has not sent any weather packets the latest 10 day(s).
| Time | Temp. | Humidity | Pressure | Rain* | Wind** | Luminosity | Snow |
|---|---|---|---|---|---|---|---|
| 1788035422 | 22.22° C | 70% | 1011.1 hPa | - | - | - | - |
| 1788034822 | 22.22° C | 70% | 1011.2 hPa | - | - | - | - |
| 1788034222 | 22.22° C | 71% | 1011.5 hPa | - | - | - | - |
| 1788033624 | 22.22° C | 70% | 1011.6 hPa | - | - | - | - |
| 1788033021 | 22.78° C | 69% | 1011.7 hPa | - | - | - | - |
| 1788032421 | 22.78° C | 68% | 1011.6 hPa | - | - | - | - |
| 1788031822 | 22.78° C | 67% | 1011.7 hPa | - | - | - | - |
| 1788031222 | 23.33° C | 65% | 1011.7 hPa | - | - | - | - |
| 1788030621 | 23.33° C | 64% | 1011.6 hPa | - | - | - | - |
| 1788030022 | 23.33° C | 63% | 1011.5 hPa | - | - | - | - |
| 1788029421 | 23.33° C | 61% | 1011.4 hPa | - | - | - | - |
| 1788028821 | 23.89° C | 55% | 1011.4 hPa | - | - | - | - |
| 1788028221 | 24.44° C | 52% | 1011 hPa | - | - | - | - |
| 1788027621 | 24.44° C | 52% | 1011 hPa | - | - | - | - |
| 1788027021 | 24.44° C | 51% | 1010.9 hPa | - | - | - | - |
| 1788026421 | 24.44° C | 50% | 1010.8 hPa | - | - | - | - |
| 1788025823 | 24.44° C | 50% | 1010.9 hPa | - | - | - | - |
| 1788025221 | 25° C | 50% | 1010.9 hPa | - | - | - | - |
| 1788024621 | 25° C | 49% | 1010.9 hPa | - | - | - | - |
| 1788024021 | 25° C | 49% | 1010.9 hPa | - | - | - | - |
| 1788023421 | 25° C | 48% | 1010.9 hPa | - | - | - | - |
| 1788022821 | 25° C | 47% | 1010.9 hPa | - | - | - | - |
| 1788022221 | 25° C | 47% | 1011.1 hPa | - | - | - | - |
| 1788021621 | 25.56° C | 47% | 1011.1 hPa | - | - | - | - |
| 1788021021 | 25.56° C | 47% | 1011.2 hPa | - | - | - | - |
* Rain since midnight (hover to see other rain measurements)
** Current wind speed in m/s (hover to see current wind gust speed)